Weather History for Benson, MN

Change the Weather History Date:

Tuesday, August 20, 2013

  Actual Average Record
Temperature  
Mean Temperature 78 °F -  
Max Temperature 89 °F 80 °F 97 °F (1976)
Min Temperature 66 °F 57 °F 41 °F (1956)
Cooling Degree Days 12    
Growing Degree Days 28 (Base 50)    
Moisture  
Dew Point 71 °F    
Average Humidity 81    
Maximum Humidity 100    
Minimum Humidity 55    
Precipitation  
Precipitation 0.00 in - - ()
Sea Level Pressure  
Sea Level Pressure 29.85 in    
Wind  
Wind Speed 7 mph (SSW)    
Max Wind Speed 13 mph    
Max Gust Speed 17 mph    
Visibility 7 miles    
Events      
Averages and records for this station are not official NWS values.
T = Trace of Precipitation, MM = Missing Value Source: NWS Daily Summary

Daily Weather History Graph

Daily Weather History Graph

Search for Another Location

Airport:

Trip Planner

Search our weather history database for the weather conditions in past years. The results will help you decide how hot, cold, wet, or windy it might be!

Date:

Astronomy

Aug. 20, 2013 Rise Set
Actual Time 6:29 AM CDT 8:20 PM CDT
Civil Twilight 5:58 AM CDT 8:52 PM CDT
Nautical Twilight 5:19 AM CDT 9:30 PM CDT
Astronomical Twilight 4:37 AM CDT 10:12 PM CDT
Moon 7:49 PM CDT (8/20) 6:02 AM CDT (8/20)
Length of Visible Light 14h 54m
Length of Day
13h 50m
Full, 100% of the Moon is Illuminated
Aug 20
Full
Aug 20
Full
Aug 28
Last Quarter
Sep 5
New
Sep 12
First Quarter

Hourly Weather History & Observations

Time (CDT) Temp. Heat Index Dew Point Humidity Pressure Visibility Wind Dir Wind Speed Gust Speed Precip Events Conditions
12:13 AM 71.6 °F - 69.8 °F 94% 29.86 in 7.0 mi South 4.6 mph - N/A   Clear
12:32 AM 71.6 °F - 69.8 °F 94% 29.87 in 7.0 mi South 5.8 mph - N/A   Clear
12:53 AM 71.6 °F - 69.8 °F 94% 29.87 in 5.0 mi SSW 5.8 mph - N/A   Clear
1:12 AM 69.8 °F - 69.8 °F 100% 29.86 in 5.0 mi SSW 5.8 mph - N/A   Clear
1:32 AM 71.6 °F - 69.8 °F 94% 29.86 in 5.0 mi SSW 6.9 mph - N/A   Clear
1:53 AM 71.6 °F - 69.8 °F 94% 29.86 in 5.0 mi SSW 5.8 mph - N/A   Clear
2:12 AM 69.8 °F - 69.8 °F 100% 29.85 in 5.0 mi SSW 6.9 mph - N/A   Clear
2:32 AM 69.8 °F - 69.8 °F 100% 29.85 in 5.0 mi South 5.8 mph - N/A   Clear
2:53 AM 69.8 °F - 68.0 °F 94% 29.85 in 4.0 mi South 5.8 mph - N/A   Clear
3:12 AM 69.8 °F - 68.0 °F 94% 29.85 in 4.0 mi South 5.8 mph - N/A   Clear
3:33 AM 69.8 °F - 68.0 °F 94% 29.85 in 4.0 mi SSW 6.9 mph - N/A   Clear
3:53 AM 69.8 °F - 68.0 °F 94% 29.85 in 5.0 mi SSW 5.8 mph - N/A   Clear
4:08 AM 69.8 °F - 66.2 °F 88% 29.85 in 4.0 mi SSW 6.9 mph - N/A   Clear
4:33 AM 68.0 °F - 66.2 °F 94% 29.85 in 4.0 mi SSW 4.6 mph - N/A   Clear
4:53 AM 68.0 °F - 66.2 °F 94% 29.85 in 3.0 mi SSW 3.5 mph - N/A   Clear
5:12 AM 66.2 °F - 66.2 °F 100% 29.85 in 3.0 mi SSW 3.5 mph - N/A   Clear
5:33 AM 66.2 °F - 64.4 °F 94% 29.85 in 1.8 mi South 3.5 mph - N/A   Mist
5:52 AM 66.2 °F - 66.2 °F 100% 29.86 in 2.5 mi South 4.6 mph - N/A   Clear
6:12 AM 66.2 °F - 64.4 °F 94% 29.86 in 2.5 mi South 3.5 mph - N/A   Clear
6:33 AM 66.2 °F - 66.2 °F 100% 29.87 in 3.0 mi South 4.6 mph - N/A   Clear
6:52 AM 66.2 °F - 66.2 °F 100% 29.87 in 2.0 mi South 3.5 mph - N/A   Clear
7:12 AM 66.2 °F - 66.2 °F 100% 29.87 in 2.0 mi South 4.6 mph - N/A   Clear
7:33 AM 68.0 °F - 66.2 °F 94% 29.87 in 2.5 mi South 5.8 mph - N/A   Clear
7:52 AM 69.8 °F - 66.2 °F 88% 29.88 in 3.0 mi South 5.8 mph - N/A   Clear
8:12 AM 69.8 °F - 68.0 °F 94% 29.87 in 4.0 mi South 6.9 mph - N/A   Clear
8:33 AM 71.6 °F - 68.0 °F 88% 29.87 in 5.0 mi SSW 6.9 mph - N/A   Clear
8:52 AM 73.4 °F - 69.8 °F 88% 29.87 in 5.0 mi SSW 5.8 mph - N/A   Clear
9:12 AM 73.4 °F - 69.8 °F 88% 29.87 in 7.0 mi SSW 8.1 mph - N/A   Clear
9:33 AM 75.2 °F - 69.8 °F 83% 29.87 in 7.0 mi SSW 8.1 mph - N/A   Clear
9:52 AM 75.2 °F - 69.8 °F 83% 29.87 in 7.0 mi South 8.1 mph - N/A   Clear
10:13 AM 78.8 °F - 71.6 °F 78% 29.87 in 7.0 mi SSW 6.9 mph - N/A   Clear
10:33 AM 78.8 °F - 71.6 °F 78% 29.87 in 10.0 mi SSW 5.8 mph - N/A   Clear
10:52 AM 80.6 °F 84.6 °F 71.6 °F 74% 29.87 in 10.0 mi SSW 5.8 mph - N/A   Clear
11:13 AM 82.4 °F 87.2 °F 71.6 °F 70% 29.87 in 10.0 mi SSW 4.6 mph - N/A   Clear
11:33 AM 82.4 °F 88.2 °F 73.4 °F 74% 29.87 in 10.0 mi SSW 8.1 mph - N/A   Clear
11:52 AM 84.2 °F 90.9 °F 73.4 °F 70% 29.87 in 10.0 mi South 6.9 mph - N/A   Clear
12:13 PM 84.2 °F 90.9 °F 73.4 °F 70% 29.87 in 10.0 mi SSE 8.1 mph - N/A   Clear
12:32 PM 86.0 °F 93.4 °F 73.4 °F 66% 29.86 in 10.0 mi South 9.2 mph - N/A   Clear
12:52 PM 86.0 °F 93.4 °F 73.4 °F 66% 29.86 in 10.0 mi SW 11.5 mph - N/A   Clear
1:13 PM 87.8 °F 95.6 °F 73.4 °F 62% 29.85 in 10.0 mi SSW 12.7 mph 17.3 mph N/A   Clear
1:32 PM 87.8 °F 95.6 °F 73.4 °F 62% 29.85 in 10.0 mi SSW 11.5 mph - N/A   Clear
1:52 PM 87.8 °F 95.6 °F 73.4 °F 62% 29.85 in 10.0 mi South 12.7 mph - N/A   Scattered Clouds
2:13 PM 87.8 °F 95.6 °F 73.4 °F 62% 29.85 in 10.0 mi South 10.4 mph - N/A   Clear
2:32 PM 89.6 °F 98.2 °F 73.4 °F 59% 29.85 in 10.0 mi SSW 8.1 mph 16.1 mph N/A   Clear
2:52 PM 89.6 °F 98.2 °F 73.4 °F 59% 29.85 in 10.0 mi SSW 6.9 mph 16.1 mph N/A   Clear
3:12 PM 89.6 °F 96.2 °F 71.6 °F 55% 29.84 in 10.0 mi SW 11.5 mph - N/A   Clear
3:32 PM 89.6 °F 98.2 °F 73.4 °F 59% 29.84 in 10.0 mi SSW 8.1 mph 11.5 mph N/A   Clear
3:53 PM 89.6 °F 98.2 °F 73.4 °F 59% 29.84 in 10.0 mi SW 10.4 mph 16.1 mph N/A   Clear
4:12 PM 89.6 °F 96.2 °F 71.6 °F 55% 29.83 in 10.0 mi South 11.5 mph - N/A   Clear
4:32 PM 89.6 °F 96.2 °F 71.6 °F 55% 29.83 in 10.0 mi SSW 10.4 mph - N/A   Clear
4:53 PM 89.6 °F 98.2 °F 73.4 °F 59% 29.83 in 10.0 mi SSW 11.5 mph - N/A   Clear
5:12 PM 87.8 °F 95.6 °F 73.4 °F 62% 29.83 in 10.0 mi South 10.4 mph - N/A   Clear
5:32 PM 87.8 °F 95.6 °F 73.4 °F 62% 29.82 in 10.0 mi South 9.2 mph - N/A   Clear
5:53 PM 87.8 °F 95.6 °F 73.4 °F 62% 29.83 in 10.0 mi SSW 12.7 mph - N/A   Clear
6:12 PM 87.8 °F 95.6 °F 73.4 °F 62% 29.82 in 10.0 mi SSW 9.2 mph - N/A   Clear
6:32 PM 87.8 °F 95.6 °F 73.4 °F 62% 29.82 in 10.0 mi South 10.4 mph - N/A   Clear
6:53 PM 86.0 °F 93.4 °F 73.4 °F 66% 29.82 in 10.0 mi South 9.2 mph - N/A   Clear
7:12 PM 84.2 °F 90.9 °F 73.4 °F 70% 29.82 in 10.0 mi South 9.2 mph - N/A   Clear
7:32 PM 84.2 °F 90.9 °F 73.4 °F 70% 29.82 in 10.0 mi South 6.9 mph - N/A   Clear
7:53 PM 82.4 °F 88.2 °F 73.4 °F 74% 29.82 in 10.0 mi South 6.9 mph - N/A   Clear
8:12 PM 82.4 °F 88.2 °F 73.4 °F 74% 29.82 in 10.0 mi South 6.9 mph - N/A   Clear
8:32 PM 80.6 °F 85.4 °F 73.4 °F 79% 29.82 in 10.0 mi South 8.1 mph - N/A   Clear
8:52 PM 80.6 °F 85.4 °F 73.4 °F 79% 29.83 in 10.0 mi South 6.9 mph - N/A   Clear
9:12 PM 78.8 °F - 73.4 °F 83% 29.83 in 10.0 mi South 8.1 mph - N/A   Clear
9:33 PM 78.8 °F - 73.4 °F 83% 29.83 in 10.0 mi South 6.9 mph - N/A   Clear
9:52 PM 78.8 °F - 73.4 °F 83% 29.84 in 10.0 mi South 5.8 mph - N/A   Clear
10:12 PM 77.0 °F - 73.4 °F 89% 29.84 in 10.0 mi South 6.9 mph - N/A   Clear
10:33 PM 75.2 °F - 73.4 °F 94% 29.84 in 7.0 mi SSW 8.1 mph - N/A   Clear
10:52 PM 75.2 °F - 73.4 °F 94% 29.84 in 7.0 mi South 6.9 mph - N/A   Clear
11:13 PM 75.2 °F - 73.4 °F 94% 29.83 in 7.0 mi SSW 5.8 mph - N/A   Clear
11:33 PM 75.2 °F - 73.4 °F 94% 29.82 in 5.0 mi South 6.9 mph - N/A   Clear
11:52 PM 75.2 °F - 73.4 °F 94% 29.82 in 5.0 mi South 6.9 mph - N/A   Clear